This is the latest recevied weather packets stored in our database for station/object WA5TET. If no packets are shown the sender has not sent any weather packets the latest 10 day(s).
| Time | Temp. | Humidity | Pressure | Rain* | Wind** | Luminosity | Snow |
|---|---|---|---|---|---|---|---|
| 1788535513 | 30.56° C | 66% | 1013.8 hPa | 0 mm | - | 632 W/m² | - |
| 1788535222 | 30° C | 68% | 1013.7 hPa | 0 mm | - | 618 W/m² | - |
| 1788534903 | 30° C | 68% | 1013.8 hPa | 0 mm | - | 613 W/m² | - |
| 1788534603 | 30.56° C | 68% | 1013.8 hPa | 0 mm | - | 592 W/m² | - |
| 1788534297 | 30° C | 70% | 1013.5 hPa | 0 mm | - | 553 W/m² | - |
| 1788533996 | 30° C | 71% | 1013.7 hPa | 0 mm | - | 549 W/m² | - |
| 1788533692 | 30° C | 71% | 1013.7 hPa | 0 mm | - | 457 W/m² | - |
| 1788533387 | 29.44° C | 73% | 1013.7 hPa | 0 mm | - | 508 W/m² | - |
| 1788533083 | 28.89° C | 73% | 1013.6 hPa | 0 mm | - | 265 W/m² | - |
| 1788532778 | 28.89° C | 75% | 1013.7 hPa | 0 mm | - | 309 W/m² | - |
| 1788532474 | 28.89° C | 75% | 1013.7 hPa | 0 mm | - | 183 W/m² | - |
| 1788532176 | 28.89° C | 75% | 1013.6 hPa | 0 mm | - | 265 W/m² | - |
| 1788531867 | 28.89° C | 74% | 1013.8 hPa | 0 mm | - | 406 W/m² | - |
| 1788531567 | 28.33° C | 76% | 1013.7 hPa | 0 mm | - | 250 W/m² | - |
| 1788531262 | 28.33° C | 78% | 1013.7 hPa | 0 mm | - | 231 W/m² | - |
| 1788530959 | 28.33° C | 79% | 1013.8 hPa | 0 mm | - | 285 W/m² | - |
| 1788530658 | 27.78° C | 80% | 1013.7 hPa | 0 mm | - | 253 W/m² | - |
| 1788530357 | 27.22° C | 82% | 1013.8 hPa | 0 mm | - | 219 W/m² | - |
| 1788530057 | 27.22° C | 82% | 1013.8 hPa | 0 mm | - | 221 W/m² | - |
| 1788529754 | 27.22° C | 82% | 1013.6 hPa | 0 mm | - | 159 W/m² | - |
| 1788529453 | 27.22° C | 82% | 1013.4 hPa | 0 mm | - | 168 W/m² | - |
| 1788529165 | 26.67° C | 84% | 1013.6 hPa | 0 mm | - | 148 W/m² | - |
| 1788528844 | 26.67° C | 84% | 1013.5 hPa | 0 mm | - | 110 W/m² | - |
| 1788528544 | 26.67° C | 84% | 1013.4 hPa | 0 mm | - | 153 W/m² | - |
| 1788528239 | 26.67° C | 84% | 1013.2 hPa | 0 mm | - | 115 W/m² | - |
* Rain latest hour (hover to see other rain measurements)
** Current wind speed in m/s (hover to see current wind gust speed)